Location: ??????
(42.0089°N, 44.3281°E)
Time: 09:15:45
(UTC+00:00)

Cosmos 220 Rocket - Pass Details

Date: 03 June 2022
Orbit: 572 x 614 km, 74.0° (Epoch: 02 July)

Event Time Altitude Azimuth Distance (km) Brightness Sun altitude
Exits shadow 20:31:36 14° 268° (W) 1,649 6.3 -25.2°
Maximum altitude 20:33:33 18° 301° (WNW) 1,432 6.3 -25.3°
Drops below altitude 10° 20:36:29 10° 346° (NNW) 1,889 7.6 -25.4°
Sets 20:39:18 0° 5° (N) 2,796 8.7 -25.4°
